GW1241 Weather Reports


time (UTC)temp
C
wind
direction
speed
KPH
gust
KPH
rain 1hr
cm
rain 24hr
cm
rain mn
cm
humidity
%
barometer
mb
20260906064016 25 277 1.6 3.2 0.00 0.00 0.00 88 1013.4
20260906063032 25 41 1.6 3.2 0.00 0.00 0.00 87 1013.5
20260906062047 25 34 0.0 3.2 0.00 0.00 0.00 87 1013.4
20260906061021 25 338 0.0 3.2 0.00 0.00 0.00 86 1013.3
20260906060037 25 270 1.6 3.2 0.00 0.00 0.00 84 1013.3
20260906055032 25 211 0.0 3.2 0.00 0.00 0.00 86 1013.1
20260906054047 25 113 0.0 1.6 0.00 0.00 0.00 87 1013.1
20260906053022 25 44 0.0 1.6 0.00 0.00 0.00 85 1013.2
20260906052017 25 116 0.0 1.6 0.00 0.00 0.00 86 1013.0
20260906051032 25 238 0.0 3.2 0.00 0.00 0.00 86 1013.2
20260906050027 25 0.0 1.6 0.00 0.00 0.00 86 1013.4
20260906045043 25 0.0 0.0 0.00 0.00 0.00 87 1013.3
20260906044017 25 0.0 1.6 0.00 0.00 0.00 87 1013.5
20260906043033 25 12 1.6 3.2 0.00 0.00 0.00 86 1013.4
20260906042028 25 343 0.0 1.6 0.00 0.00 0.00 85 1013.3
20260906041043 25 21 1.6 3.2 0.00 0.00 0.00 84 1013.5
20260906040038 25 0.0 0.0 0.00 0.00 0.00 84 1013.4
20260906035033 26 62 0.0 1.6 0.00 0.00 0.00 84 1013.4
20260906034049 26 0 0.0 1.6 0.00 0.00 0.00 80 1013.5
20260906033024 26 0.0 0.0 0.00 0.00 0.00 80 1013.4
20260906032019 26 157 0.0 1.6 0.00 0.00 0.00 80 1013.4
20260906031054 26 358 0.0 1.6 0.00 0.00 0.00 79 1013.5
20260906030029 26 0.0 0.0 0.00 0.00 0.00 79 1013.4
20260906025024 27 0.0 0.0 0.00 0.00 0.00 77 1013.2
20260906024040 27 0.0 1.6 0.00 0.00 0.00 77 1013.0
20260906023035 27 41 0.0 3.2 0.00 0.00 0.00 78 1012.9
20260906022030 27 257 0.0 1.6 0.00 0.00 0.00 78 1012.7
20260906021025 27 0.0 0.0 0.00 0.00 0.00 77 1012.4
20260906020020 27 359 0.0 1.6 0.00 0.00 0.00 77 1012.3
20260906015035 28 0.0 0.0 0.00 0.00 0.00 76 1012.2
20260906014031 28 0.0 0.0 0.00 0.00 0.00 76 1012.2
20260906013026 28 0.0 1.6 0.00 0.00 0.00 75 1012.2
20260906012021 28 0.0 0.0 0.00 0.00 0.00 76 1012.2
20260906011036 28 0.0 0.0 0.00 0.00 0.00 78 1012.0
20260906010032 28 71 1.6 6.4 0.00 0.00 0.00 78 1011.8
20260906005027 29 0.0 0.0 0.00 0.00 0.00 76 1011.7
20260906004042 30 328 0.0 1.6 0.00 0.00 0.00 73 1011.7
20260906003017 30 343 0.0 1.6 0.00 0.00 0.00 72 1011.7
20260906002053 30 0.0 1.6 0.00 0.00 0.00 70 1012.0
20260906001028 31 0.0 0.0 0.00 0.00 0.00 69 1012.0
20260906000024 31 0.0 0.0 0.00 0.00 0.00 67 1011.8
20260905235018 31 0.0 1.6 0.00 0.00 0.00 66 1011.8
20260905234034 31 0.0 1.6 0.00 0.00 0.00 65 1011.8
20260905233029 32 284 0.0 1.6 0.00 0.00 0.00 64 1011.9
20260905232024 32 302 0.0 1.6 0.00 0.00 0.00 63 1012.0
20260905231039 33 302 0.0 3.2 0.00 0.00 0.00 61 1011.8
20260905230035 33 286 1.6 3.2 0.00 0.00 0.00 59 1011.7
20260905225030 33 285 1.6 3.2 0.00 0.00 0.00 59 1011.8
20260905224025 33 296 1.6 3.2 0.00 0.00 0.00 59 1011.7
20260905223020 33 277 1.6 3.2 0.00 0.00 0.00 59 1011.7
20260905222035 35 292 1.6 3.2 0.00 0.00 0.00 55 1011.7
20260905221030 35 282 1.6 4.8 0.00 0.00 0.00 55 1011.9
20260905220025 35 310 1.6 4.8 0.00 0.00 0.00 54 1012.0
20260905215021 35 317 1.6 4.8 0.00 0.00 0.00 54 1012.0
20260905214016 35 270 0.0 3.2 0.00 0.00 0.00 54 1011.9
20260905213031 35 322 1.6 3.2 0.00 0.00 0.00 52 1011.9
20260905212026 35 286 3.2 4.8 0.00 0.00 0.00 50 1012.0
20260905211022 35 269 0.0 3.2 0.00 0.00 0.00 52 1012.0
20260905210037 35 60 1.6 4.8 0.00 0.00 0.00 48 1012.0
20260905205032 36 357 1.6 3.2 0.00 0.00 0.00 48 1012.1
20260905204027 35 346 3.2 4.8 0.00 0.00 0.00 50 1012.2
20260905203022 36 301 1.6 4.8 0.00 0.00 0.00 48 1012.5
20260905202017 35 350 1.6 4.8 0.00 0.00 0.00 51 1012.6
20260905201032 36 301 3.2 4.8 0.00 0.00 0.00 51 1012.8
20260905200027 37 156 1.6 6.4 0.00 0.00 0.00 47 1013.0
20260905195022 36 313 1.6 4.8 0.00 0.00 0.00 49 1013.1
20260905194018 36 269 3.2 6.4 0.00 0.00 0.00 50 1013.3
20260905193032 35 26 3.2 4.8 0.00 0.00 0.00 52 1013.4
20260905192028 37 312 3.2 4.8 0.00 0.00 0.00 51 1013.5
20260905191023 36 14 3.2 4.8 0.00 0.00 0.00 52 1013.6
20260905190018 36 283 1.6 4.8 0.00 0.00 0.00 52 1013.9
20260905185034 36 273 3.2 4.8 0.00 0.00 0.00 52 1014.0
20260905184049 35 286 3.2 4.8 0.00 0.00 0.00 55 1014.1
20260905183023 36 24 1.6 3.2 0.00 0.00 0.00 52 1014.1
20260905182018 36 295 1.6 6.4 0.00 0.00 0.00 52 1014.3
20260905181034 36 27 3.2 4.8 0.00 0.00 0.00 51 1014.4
20260905180029 36 262 3.2 6.4 0.00 0.00 0.00 52 1014.5
20260905175023 36 323 3.2 4.8 0.00 0.00 0.00 52 1014.6
20260905174018 36 293 1.6 6.4 0.00 0.00 0.00 51 1014.6
20260905173034 36 307 3.2 4.8 0.00 0.00 0.00 51 1014.8
20260905172029 35 64 3.2 4.8 0.00 0.00 0.00 52 1014.8
20260905171024 35 133 1.6 4.8 0.00 0.00 0.00 53 1015.0
20260905170019 35 320 3.2 4.8 0.00 0.00 0.00 54 1015.1
20260905165034 35 350 1.6 4.8 0.00 0.00 0.00 55 1015.2
20260905164029 35 13 1.6 4.8 0.00 0.00 0.00 56 1015.3
20260905163024 35 259 1.6 4.8 0.00 0.00 0.00 55 1015.4
20260905162019 35 325 1.6 3.2 0.00 0.00 0.00 55 1015.6
20260905161034 34 306 3.2 4.8 0.00 0.00 0.00 56 1015.6
20260905160029 34 260 3.2 4.8 0.00 0.00 0.00 56 1015.7
20260905155024 34 306 1.6 4.8 0.00 0.00 0.00 58 1015.8
20260905154019 34 342 1.6 3.2 0.00 0.00 0.00 59 1015.9
20260905153034 33 305 1.6 3.2 0.00 0.00 0.00 60 1015.8
20260905152029 33 314 1.6 3.2 0.00 0.00 0.00 60 1015.8
20260905151025 33 110 1.6 3.2 0.00 0.00 0.00 61 1015.8
20260905150020 32 72 0.0 3.2 0.00 0.00 0.00 64 1015.8
20260905145035 32 105 0.0 3.2 0.00 0.00 0.00 65 1015.7
20260905144031 31 294 1.6 3.2 0.00 0.00 0.00 68 1015.8
20260905143025 31 324 1.6 3.2 0.00 0.00 0.00 70 1015.9
20260905142020 30 344 0.0 3.2 0.00 0.00 0.00 72 1015.9
20260905141015 28 14 0.0 3.2 0.00 0.00 0.00 77 1016.0
20260905140051 27 1 0.0 1.6 0.00 0.00 0.00 83 1016.1
20260905135026 27 19 0.0 3.2 0.00 0.00 0.00 86 1016.1
20260905134021 26 0.0 0.0 0.00 0.00 0.00 88 1016.2
20260905133016 25 0.0 0.0 0.00 0.00 0.00 92 1016.2
20260905132031 25 7 0.0 1.6 0.00 0.00 0.00 94 1016.1
20260905131027 24 189 0.0 3.2 0.00 0.00 0.00 98 1016.1
20260905130021 23 356 0.0 1.6 0.00 0.00 0.00 98 1016.2
20260905125017 23 12 1.6 3.2 0.00 0.00 0.00 99 1016.2
20260905124052 23 12 0.0 1.6 0.00 0.00 0.00 99 1016.2
20260905123027 22 360 1.6 3.2 0.00 0.00 0.00 99 1016.1
20260905122022 22 26 3.2 4.8 0.00 0.00 0.00 99 1016.2
20260905121017 22 327 1.6 3.2 0.00 0.00 0.00 99 1015.9
20260905120032 22 58 0.0 1.6 0.00 0.00 0.00 99 1015.9
20260905115028 22 306 0.0 3.2 0.00 0.00 0.00 99 1015.7
20260905114023 22 349 1.6 4.8 0.00 0.00 0.00 99 1015.5
20260905113018 22 201 1.6 4.8 0.00 0.00 0.00 99 1015.4
20260905112033 22 9 1.6 3.2 0.00 0.00 0.00 99 1015.2
20260905111028 22 351 0.0 1.6 0.00 0.00 0.00 99 1015.2
20260905110024 22 59 0.0 1.6 0.00 0.00 0.00 99 1015.0
20260905105019 22 21 1.6 3.2 0.00 0.00 0.00 99 1015.0
20260905104054 22 0.0 1.6 0.00 0.00 0.00 99 1014.9
20260905103029 22 13 1.6 3.2 0.00 0.00 0.00 99 1014.8
20260905102024 22 0.0 1.6 0.00 0.00 0.00 99 1014.8
20260905101039 22 26 0.0 1.6 0.00 0.00 0.00 99 1014.8
20260905100034 22 0.0 1.6 0.00 0.00 0.00 98 1014.9
20260905095029 22 0.0 0.0 0.00 0.00 0.00 98 1014.8
20260905094024 22 0.0 0.0 0.00 0.00 0.00 98 1014.7
20260905093046 22 0.0 0.0 0.00 0.00 0.00 98 1014.5
20260905092033 22 0.0 0.0 0.00 0.00 0.00 98 1014.5
20260905091028 22 1 1.6 3.2 0.00 0.00 0.00 98 1014.4
20260905090023 22 5 1.6 1.6 0.00 0.00 0.00 98 1014.4
20260905085019 22 0.0 0.0 0.00 0.00 0.00 98 1014.5
20260905084053 22 14 0.0 1.6 0.00 0.00 0.00 98 1014.5
20260905083029 22 351 0.0 1.6 0.00 0.00 0.00 98 1014.5
20260905082044 22 14 0.0 1.6 0.00 0.00 0.00 97 1014.3
20260905081019 22 0.0 0.0 0.00 0.00 0.00 97 1014.3
20260905080034 22 8 1.6 3.2 0.00 0.00 0.00 97 1014.2
20260905075029 22 0.0 0.0 0.00 0.00 0.00 97 1014.3
20260905074024 22 0.0 0.0 0.00 0.00 0.00 97 1014.2
20260905073020 22 0.0 0.0 0.00 0.00 0.00 97 1014.3
20260905072035 23 0.0 0.0 0.00 0.00 0.00 96 1014.4
20260905071030 23 0.0 0.0 0.00 0.00 0.00 96 1014.5
20260905070026 23 0.0 0.0 0.00 0.00 0.00 96 1014.7
20260905065020 23 0.0 1.6 0.00 0.00 0.00 95 1014.6